DWI200 MDSD-TNCA

Flight info

Callsign DWI200
Flight time N/A
Altitude 34000
Route BEROX2J BEROX BEROX2A
Aircraft B38M/M-SDE1FGHILORVWXY/HB1

Departure

Time 2026-05-05 17:10
Airport Las Américas International Airport (MDSD)

Arrival

Time N/A
Airport Queen Beatrix International Airport (TNCA)
Time Latitude Longitude Altitude Speed Heading
2026-05-05 16:37 18.43103 -69.67534 59 ft 0 kts 293°
2026-05-05 16:59 18.43096 -69.67512 59 ft 4 kts 277°
2026-05-05 16:59 18.43097 -69.67484 66 ft 4 kts 258°
2026-05-05 16:59 18.43099 -69.67475 66 ft 1 kts 257°
2026-05-05 17:03 18.43099 -69.67480 66 ft 0 kts 275°
2026-05-05 17:04 18.43102 -69.67482 66 ft 0 kts 317°
2026-05-05 17:04 18.43114 -69.67485 66 ft 7 kts 344°
2026-05-05 17:04 18.43191 -69.67491 65 ft 14 kts 354°
2026-05-05 17:04 18.43293 -69.67527 59 ft 17 kts 340°
2026-05-05 17:05 18.43408 -69.67540 59 ft 16 kts 22°
2026-05-05 17:05 18.43520 -69.67561 63 ft 18 kts 339°
2026-05-05 17:05 18.43646 -69.67611 56 ft 21 kts 339°
2026-05-05 17:05 18.43791 -69.67669 59 ft 24 kts 337°
2026-05-05 17:06 18.43946 -69.67737 57 ft 23 kts 337°
2026-05-05 17:06 18.44046 -69.67773 54 ft 8 kts 338°
2026-05-05 17:06 18.44049 -69.67774 60 ft 0 kts 337°
2026-05-05 17:07 18.44075 -69.67784 60 ft 12 kts 342°
2026-05-05 17:07 18.44149 -69.67727 59 ft 17 kts 73°
2026-05-05 17:07 18.44198 -69.67597 54 ft 21 kts 61°
2026-05-05 17:08 18.44296 -69.67528 59 ft 8 kts 25°
2026-05-05 17:08 18.44342 -69.67489 58 ft 10 kts 59°
2026-05-05 17:08 18.44339 -69.67422 53 ft 11 kts 129°
2026-05-05 17:08 18.44275 -69.67377 57 ft 0 kts 154°
2026-05-05 17:09 18.44265 -69.67374 59 ft 0 kts 160°
2026-05-05 17:09 18.44210 -69.67353 60 ft 36 kts 160°
2026-05-05 17:09 18.43705 -69.67164 62 ft 115 kts 160°
2026-05-05 17:10 18.42722 -69.66802 100 ft 175 kts 160°
2026-05-05 17:10 18.41497 -69.66370 625 ft 200 kts 161°
2026-05-05 17:10 18.40086 -69.65867 1275 ft 227 kts 161°
2026-05-05 17:10 18.38534 -69.65354 2244 ft 237 kts 163°
2026-05-05 17:11 18.36957 -69.64785 3378 ft 243 kts 147°
2026-05-05 17:11 18.35629 -69.63802 3095 ft 234 kts 118°
2026-05-05 17:11 18.34822 -69.62210 2190 ft 239 kts 145°
2026-05-05 17:11 18.33347 -69.61663 2984 ft 230 kts 174°
2026-05-05 17:12 18.31723 -69.61892 3113 ft 241 kts 192°
2026-05-05 17:12 18.30083 -69.62310 3347 ft 243 kts 187°
2026-05-05 17:12 18.28411 -69.62497 3520 ft 242 kts 181°
2026-05-05 17:12 18.26726 -69.62563 3684 ft 242 kts 178°
2026-05-05 17:13 18.25044 -69.62540 3821 ft 241 kts 175°
2026-05-05 17:13 18.23372 -69.62446 4035 ft 240 kts 173°
2026-05-05 17:13 18.21700 -69.62295 4212 ft 241 kts 172°
2026-05-05 17:13 18.20025 -69.62111 4391 ft 243 kts 171°
2026-05-05 17:14 18.18353 -69.61903 4506 ft 242 kts 170°
2026-05-05 17:14 18.16689 -69.61684 4613 ft 242 kts 170°
2026-05-05 17:14 18.15017 -69.61456 4666 ft 242 kts 170°
2026-05-05 17:14 18.13339 -69.61225 4657 ft 243 kts 169°
2026-05-05 17:15 18.11655 -69.60985 5023 ft 244 kts 170°
2026-05-05 17:15 18.09977 -69.60741 6118 ft 248 kts 169°
2026-05-05 17:15 18.08195 -69.60733 6885 ft 268 kts 187°
2026-05-05 17:15 18.06334 -69.61134 7765 ft 275 kts 188°
2026-05-05 17:16 18.04434 -69.61542 8731 ft 282 kts 189°
2026-05-05 17:16 18.02497 -69.61966 9685 ft 287 kts 189°
2026-05-05 17:16 18.00513 -69.62403 10483 ft 298 kts 190°
2026-05-05 17:16 17.98449 -69.62863 11229 ft 308 kts 190°
2026-05-05 17:17 17.96330 -69.63335 12122 ft 313 kts 190°
2026-05-05 17:17 17.94185 -69.63813 13015 ft 318 kts 191°
2026-05-05 17:17 17.92017 -69.64297 13891 ft 322 kts 191°
2026-05-05 17:17 17.89834 -69.64785 14743 ft 327 kts 192°
2026-05-05 17:18 17.87593 -69.65284 15573 ft 332 kts 192°
2026-05-05 17:18 17.85320 -69.65790 16402 ft 336 kts 192°
2026-05-05 17:18 17.83015 -69.66304 17197 ft 340 kts 193°
2026-05-05 17:18 17.80688 -69.66822 17957 ft 345 kts 193°
2026-05-05 17:19 17.78321 -69.67349 18695 ft 349 kts 193°
2026-05-05 17:19 17.75928 -69.67882 19404 ft 354 kts 193°
2026-05-05 17:19 17.73501 -69.68422 20050 ft 359 kts 193°
2026-05-05 17:19 17.71046 -69.68968 20693 ft 363 kts 193°
2026-05-05 17:20 17.68564 -69.69520 21319 ft 368 kts 193°
2026-05-05 17:20 17.66046 -69.70080 21915 ft 372 kts 193°
2026-05-05 17:20 17.63503 -69.70646 22483 ft 376 kts 193°
2026-05-05 17:20 17.60929 -69.71218 23048 ft 380 kts 193°
2026-05-05 17:21 17.58329 -69.71795 23582 ft 384 kts 194°
2026-05-05 17:21 17.55700 -69.72379 24105 ft 388 kts 194°
2026-05-05 17:21 17.53046 -69.72969 24626 ft 391 kts 194°
2026-05-05 17:22 17.47683 -69.74159 25685 ft 397 kts 194°
2026-05-05 17:22 17.44973 -69.74760 26208 ft 399 kts 194°
2026-05-05 17:22 17.42256 -69.75363 26701 ft 402 kts 194°
2026-05-05 17:22 17.39513 -69.75971 27171 ft 404 kts 194°
2026-05-05 17:23 17.36748 -69.76584 27652 ft 407 kts 194°
2026-05-05 17:23 17.33968 -69.77200 28116 ft 409 kts 194°
2026-05-05 17:23 17.31177 -69.77818 28547 ft 412 kts 194°
2026-05-05 17:23 17.28362 -69.78442 28979 ft 414 kts 194°
2026-05-05 17:24 17.25536 -69.79067 29389 ft 417 kts 194°
2026-05-05 17:24 17.22688 -69.79698 29793 ft 419 kts 194°
2026-05-05 17:24 17.19839 -69.80328 30181 ft 422 kts 195°
2026-05-05 17:24 17.16958 -69.80965 30569 ft 424 kts 195°
2026-05-05 17:25 17.14066 -69.81605 30927 ft 426 kts 194°
2026-05-05 17:25 17.12145 -69.82029 31148 ft 428 kts 194°
2026-05-05 17:25 17.08218 -69.82897 31605 ft 432 kts 195°
2026-05-05 17:25 17.05306 -69.83540 31939 ft 435 kts 195°
2026-05-05 17:26 17.02335 -69.84196 32270 ft 438 kts 195°
2026-05-05 17:26 16.99342 -69.84857 32595 ft 440 kts 195°
2026-05-05 17:26 16.96339 -69.85520 32915 ft 443 kts 195°
2026-05-05 17:26 16.93318 -69.86186 33219 ft 445 kts 195°
2026-05-05 17:27 16.90283 -69.86855 33532 ft 448 kts 195°
2026-05-05 17:27 16.87225 -69.87529 33872 ft 449 kts 195°
2026-05-05 17:27 16.84169 -69.88203 34288 ft 449 kts 195°
2026-05-05 17:27 16.81115 -69.88876 34697 ft 448 kts 195°
2026-05-05 17:28 16.78071 -69.89546 35115 ft 447 kts 195°
2026-05-05 17:28 16.75033 -69.90215 35526 ft 445 kts 195°
2026-05-05 17:28 16.72007 -69.90882 35922 ft 445 kts 195°
2026-05-05 17:28 16.68985 -69.91546 36094 ft 446 kts 195°
2026-05-05 17:29 16.65961 -69.92211 36081 ft 442 kts 195°